Regional Weather Roundup
Issued by NWS Upton, NY

Current Version | Previous Version | Text Only | Print | Product List | Glossary On
Versions: 1 2 3 4 5 6 7 8 9 10 11 12 13 14 15 16 17 18 19 20 21 22 23 24 25 26 27 28 29 30 31 32 33 34 35 36 37 38 39 40 41 42 43 44 45 46 47 48 49 50
000 ASUS41 KOKX 301308 RWROKX REGIONAL WEATHER ROUNDUP NATIONAL WEATHER SERVICE NEW YORK NY 900 AM EDT TUE JUN 30 2015 NOTE: "FAIR" INDICATES FEW OR NO CLOUDS BELOW 12,000 FEET WITH NO SIGNIFICANT WEATHER AND/OR OBSTRUCTIONS TO VISIBILITY. NYZ071-072-176-178-NJZ106-104-301400- NEW YORK CITY METRO AREA CITY SKY/WX TMP DP RH WIND PRES REMARKS CENTRAL PARK SUNNY 75 58 55 VRB3 30.00F LAGUARDIA APRT MOSUNNY 75 58 55 S7 29.97F KENNEDY INTL MOSUNNY 74 65 73 SW5 29.99S NEWARK/LIBERTY PTSUNNY 74 58 57 S3 29.97F BRNX BOT. GARD N/A 75 59 57 S2 29.99R TETERBORO CLOUDY 75 59 57 S6 29.96F $$ NYZ177-179-078>081-301400- LONG ISLAND NEW YORK CITY SKY/WX TMP DP RH WIND PRES REMARKS FARMINGDALE SUNNY 74 64 71 S8 29.99S ISLIP MOSUNNY 75 63 66 SW6 29.98S SHIRLEY SUNNY 74 65 73 S7 30.00S WESTHAMPTON SUNNY 73 67 81 S7 30.02R MONTAUK POINT N/A 74 65 73 S5 30.01F $$ NYZ052-065-067-301400- HUDSON VALLEY CITY SKY/WX TMP DP RH WIND PRES REMARKS WHITE PLAINS MOSUNNY 73 61 65 E3 29.98F NEWBURGH PTSUNNY 66 63 88 CALM 30.00S MONTGOMERY CLOUDY 66 61 84 N6 29.99S POUGHKEEPSIE CLOUDY 67 61 81 CALM 29.99R ALBANY CLOUDY 67 59 75 CALM 30.00S $$ NJZ001-105-106-008-010-013-015-019>022-104-301400- NEW JERSEY CITY SKY/WX TMP DP RH WIND PRES REMARKS NEWARK/LIBERTY PTSUNNY 74 58 57 S3 29.97F TETERBORO CLOUDY 75 59 57 S6 29.96F CALDWELL CLOUDY 69 60 73 NW3 29.98F MORRISTOWN CLOUDY 73 68 83 CALM 29.98F SOMERVILLE CLOUDY 69 63 81 CALM 29.96S SUSSEX CLOUDY 66 61 84 NE5 29.98F ANDOVER N/A 67 62 84 NE3 29.98S TRENTON CLOUDY 73 62 68 S8 29.97R MILLVILLE SUNNY 76 68 76 S10 29.97R ATLANTIC CITY MOSUNNY 77 63 61 S9 29.98R WRIGHTSTOWN MOSUNNY 75 64 70 VRB7 29.95S TOMS RIVER MOSUNNY 75 63 64 S13 29.99R BELMAR SUNNY 75 61 60 S8 29.99R $$ PAZ047>061-062-071-301400- EASTERN PENNSYLVANIA CITY SKY/WX TMP DP RH WIND PRES REMARKS PHILADELPHIA MOSUNNY 76 66 71 S9 29.95F ALLENTOWN CLOUDY 68 61 78 NE5 29.95F SCRANTON LGT RAIN 67 62 84 CALM 29.93S $$ CTZ002-004>006-009-010-012-RIZ004-006-007-MAZ004-011-015-301400- SOUTHERN NEW ENGLAND IN CT CITY SKY/WX TMP DP RH WIND PRES REMARKS BRADLEY INTL MOSUNNY 68 60 75 CALM 30.00S HARTFORD SUNNY 70 60 70 SE9 30.00S DANBURY CLOUDY 70 59 68 N3 30.01S WTRBRY/OXFORD MOSUNNY 70 59 68 SE3 30.03R BRIDGEPORT MOSUNNY 72 63 73 S5 29.99S MERIDEN SUNNY 71 61 70 CALM 30.00S NEW HAVEN MOSUNNY 70 63 78 VRB3 29.99F CHESTER FAIR 70 63 78 SW3 30.02S GROTON SUNNY 73 63 70 W7 29.99F WILLIMANTIC SUNNY 68 60 75 CALM 30.02S IN RI CITY SKY/WX TMP DP RH WIND PRES REMARKS PROVIDENCE MOSUNNY 71 62 73 SW9 30.01F BLOCK ISLAND SUNNY 72 63 73 SW12 30.02S WESTERLY SUNNY 71 63 75 VRB5 30.01S IN MA CITY SKY/WX TMP DP RH WIND PRES REMARKS BOSTON MOSUNNY 68 61 78 SE3 30.01R WORCESTER SUNNY 69 53 56 CALM 30.02F WESTFIELD SUNNY 67 58 72 CALM 30.01S PROVINCETOWN SUNNY 70 12 11 SW8 30.02S NANTUCKET MOSUNNY 68 64 87 SW8 30.03S $$ ANZ330-335-338-340-345-350-353-355-301400- COASTAL MARINE OBSERVATIONS STATION/POSITION TIME SKY/WX TEMP WIND PRES VSBY WAVE AIR SEA DIR/SP/G HT/PER (UTC) (F) (DEG/KT/KT) (MB) (MI) (FT/S) NY HARB ENTRANCE 1250 69 68 180/ 6/ 6 1014.8 3/ 7 4S FIRE IS 1203 66 N/A 3/ 8 20S FIRE ISLAND 1250 68 67 180/ 8/ 8 1015.4 3/ 8 GREAT SOUTH BAY 1215 69 72 230/ 6/ 8 N/A 23SW MTP 1250 67 65 200/ 6/ 8 1015.7 3/ 8 HUDSON CANYON NOT AVBL KINGS POINT 1200 70 64 190/ 5/ 6 1014.8 CENTRAL LI SOUND NOT AVBL EASTERN LI SOUND 1200 66 190/ 6/ 6 N/A ROBBINS REEF 1200 70 150/ 4/ 5 1014.2 $$ >>>>>>>>>>>>>>>>>>>>>>>>>>>> KEY <<<<<<<<<<<<<<<<<<<<<<<<<<< > < > SKY/WX - SKY CONDITION/PRESENT WEATHER < > TMP - TEMPERATURE IN FAHRENHEIT < > DP - DEWPOINT IN FAHRENHEIT < > RH - RELATIVE HUMIDITY IN PERCENT < > WIND - DIRECTION AND SPEED IN MPH < > PRES - MEAN SEA LEVEL PRESSURE IN INCHES OF HG < > WCI - WIND CHILL INDEX < > VSB - VISIBILITY IN MILES < > HX - HEAT INDEX < > TC - TEMPERATURE IN CELSIUS < > VRB - VARIABLE WIND DIRECTION < > < >>>>>>>>>>>>>>>>>>>>>>>>>>>> KEY <<<<<<<<<<<<<<<<<<<<<<<<<<<

USA.gov is the U.S. government's official web portal to all federal, state and local government web resources and services.